Content
SEND FEEDBACK

Daily
Averages
Monthly
Summary
United States of America

BECKS, UTAH


Home > North America > United States > Utah
Elevation: 4453 feet     Latitude: 40 46N     Longitude: 111 53W

WEATHER
 
SELECT A DAY
Number of Records: 355,240;   Date Range: 1/1/95 - 7/29/14
 
SHARE

PRINT THIS DATA

[ ← Previous Day ]
WEATHER ALMANAC - JANUARY 23, 2013
[ Next Day → ]
[ °C ]   °F
Weather ElementAverageHighLow
Temperature12.5 °F19.9 °F (2:53 pm)5 °F (4:09 am)
Dewpoint9 °F12.9 °F (2:53 pm)1.9 °F (4:09 am)
Humidity86 %92 % (2:15 am)74 % (12:53 pm)
Barometer30.45 in30.56 in (12:53 am)30.28 in (10:20 pm)
Wind Speed4.2 mph9.2 mph (3:53 am)
Weather ElementAverage
Visibility3.8 mi
Wind DirectionS (184.5 °)

Weather ElementTotal
Precipitation---
Heating Degree Days52.6 (Base 65)
Averaged from 38 records on January 23, 2013
WEATHER CONDITIONS BREAKOUT
WIND DIRECTION BREAKOUT
WEATHER BY HOUR - JANUARY 23, 2013
[ °C ]   °F
Local TimeTemperatureDewpointHumidityBarometerVisibilityWind DirectionWind SpeedGust SpeedPrecipitationEventsConditions
12:53 AM7.0 °F3.9 °F87 %30.56 in5.0 miNorth (360°)6.9 mphMostly Cloudy
1:53 AM6.1 °F3.0 °F87 %30.55 in3.0 miENE (70°)4.6 mph0.00 inMostly Cloudy
2:15 AM8.1 °F6.1 °F92 %30.37 in5.0 miCalmScattered Clouds
2:53 AM9.0 °F6.1 °F88 %30.51 in5.0 miCalmPartly Cloudy
3:53 AM6.1 °F3.0 °F87 %30.56 in5.0 miNW (320°)9.2 mphPartly Cloudy
4:09 AM5.0 °F1.9 °F87 %30.38 in1.0 miNorth (350°)8.1 mph0.00 inSnowLight Snow
4:32 AM5.0 °F1.9 °F87 %30.37 in3.0 miCalm0.00 inMostly Cloudy
4:53 AM7.0 °F5.0 °F92 %30.55 in3.0 miCalm0.00 inPartly Cloudy
5:28 AM9.0 °F6.1 °F88 %30.37 in3.0 miSW (220°)4.6 mphMostly Cloudy
5:53 AM10.0 °F7.0 °F87 %30.54 in3.0 miCalmMostly Cloudy
6:42 AM10.0 °F7.0 °F87 %30.36 in3.0 miSouth (170°)3.5 mphPartly Cloudy
6:53 AM10.0 °F8.1 °F92 %30.55 in3.0 miSE (130°)4.6 mphPartly Cloudy
7:44 AM10.0 °F7.0 °F87 %30.33 in4.0 miSSE (160°)5.8 mphScattered Clouds
7:53 AM10.9 °F8.1 °F88 %30.52 in4.0 miSouth (180°)3.5 mphScattered Clouds
8:53 AM8.1 °F5.0 °F87 %30.55 in4.0 miNorth (360°)8.1 mphMostly Cloudy
9:53 AM10.9 °F8.1 °F88 %30.56 in3.0 miNNW (340°)8.1 mphMostly Cloudy
10:04 AM12.0 °F9.0 °F88 %30.37 in3.0 miNNE (20°)6.9 mphMostly Cloudy
10:35 AM12.9 °F10.9 °F92 %30.38 in3.0 miNW (320°)4.6 mphMostly Cloudy
10:45 AM14.0 °F10.9 °F88 %30.38 in3.0 miNNE (20°)4.6 mphMostly Cloudy
10:53 AM14.0 °F10.9 °F88 %30.56 in3.0 miNorth (10°)3.5 mphMostly Cloudy
11:00 AM15.1 °F10.9 °F84 %30.38 in3.0 miNNW (340°)3.5 mphMostly Cloudy
11:18 AM16.0 °F12.0 °F84 %30.37 in3.0 miNNW (340°)3.5 mphMostly Cloudy
11:25 AM16.0 °F12.0 °F84 %30.38 in3.0 miNW (320°)3.5 mphMostly Cloudy
11:53 AM17.1 °F12.0 °F81 %30.54 in3.0 miNorth (10°)3.5 mphHaze
12:53 PM19.0 °F12.0 °F74 %30.49 in3.0 miWest (280°)3.5 mphHaze
1:53 PM18.0 °F12.0 °F78 %30.47 in6.0 miNorth (10°)4.6 mphHaze
2:53 PM19.9 °F12.9 °F74 %30.43 in7.0 miNorth (350°)5.8 mphMostly Cloudy
3:53 PM18.0 °F12.9 °F81 %30.46 in6.0 miNorth (350°)8.1 mphHaze
4:53 PM17.1 °F10.9 °F77 %30.45 in5.0 miNorth (10°)5.8 mphHaze
5:53 PM16.0 °F12.0 °F84 %30.45 in5.0 miNorth (350°)9.2 mphMostly Cloudy
6:53 PM15.1 °F10.9 °F84 %30.45 in4.0 miWest (280°)3.5 mphMostly Cloudy
7:53 PM16.0 °F12.0 °F84 %30.45 in5.0 miNorth (360°)4.6 mphMostly Cloudy
8:53 PM14.0 °F12.0 °F92 %30.44 in4.0 miNorth (360°)3.5 mphScattered Clouds
9:53 PM15.1 °F12.0 °F88 %30.43 in4.0 miCalmMostly Cloudy
10:20 PM15.1 °F12.0 °F88 %30.28 in4.0 miWNW (290°)4.6 mphMostly Cloudy
10:53 PM12.0 °F9.0 °F88 %30.43 in4.0 miNNW (330°)4.6 mphMostly Cloudy
11:40 PM15.1 °F12.0 °F88 %30.29 in3.0 miCalmMostly Cloudy
11:53 PM15.1 °F12.0 °F88 %30.43 in3.0 miCalmMostly Cloudy
Hourly data recorded from KSLC, located miles away from Becks, Utah







STORIES FROM OUR PARTNERS